CZ-6A DEB, 54920

Orbit data source: Space-Track

CZ-6A DEB, 54920 is space debris in SSO originally from a launch on Fri, 11 Nov 2022 UTC launched from the Taiyaun Space Center, China (TSC). Debris objects in space refer to the collection of defunct objects orbiting the Earth. Examples of debris include non-operational satellites, rocket bodies, and fragments generated from explosions, collisions, or faulty payload assembly.

Loading next visibility...
Identifier
54920, 2022-151RH
Orbit
SSO
Country
Flag of CNCN / PRC
Related business
Manufacturer
SAST
Mission
Spacecraft
Bus & Motor
Unknown
Mass
Unknown
Launch date (UTC)
2022-11-11 (4 years ago)
Launch vehicle
Unknown
Launch site
Taiyaun Space Center, China (TSC)
Object type
Payload
Rocket body
Debris
Shape & HBR
Unknown shape, 0.1 m
Radar Cross Section
Medium (>0.1 m² and <1 m²)

Expand to show TLE details & history
Last TLE update: 2 days ago

TLE from 2 days ago
0 CZ-6A DEB
1 54920U 22151RH  26171.18802153  .00013510  00000-0  17324-2 0  9995
2 54920  98.6270 246.2579 0062639 244.4165 115.0562 14.80005418187727
Epoch: 2026-06-20T04:30Z
TLE epoch observation values (Epoch: 2026-06-20T04:30:45.060Z)
Latitude
-0.00001°
Longitude
-89.83608°
Altitude
651.124 km
Speed
7.522 km/s
True Right ascension
16h 25m 01s
True Declination
0° 00' 00"
Sunlit
Object was in full shadow at epoch
Visualization orbit readout
Latitude
Unknown
Longitude
Unknown
Altitude
Unknown
Speed
Unknown
Apparent Right ascension
Unknown
Apparent Declination
Unknown
Sunlit
N/A
Visualization observer readout
Local Sidereal Time
21:39:47
Azimuth
Unknown
Elevation
Unknown
Doppler factor
Unknown
Orbital elements
Apogee altitude
670.257 km
Perigee altitude
582.506 km
Semi-major axis
7,004.519 km
Eccentricity
0.00626
Inclination
98.627°
RAAN
246.2579°
Arg. of periapsis
244.4165°
True anomaly
115.70428°
Mean anomaly
115.0562°
Eccentric anomaly
115.38046°
Mean motion
3.70234 °/min
Orbital period
97.24 mins
BSTAR
0.0017324
Loading maneuver chart data...
Computing Atmospheric mass density...
Loading historical data...
Loading historical data...
Loading historical data...
Loading historical data...
Loading historical data...
Loading historical data...
Loading historical data...

Documentation

Showing up to 5 results
|